FW4679 Weather Reports


Display with metric or nautical units.
time (UTC)temp
F
wind
direction
speed
MPH
gust
MPH
rain 1hr
in
rain 24hr
in
rain mn
in
humidity
%
barometer
mb
20260508110044 40 214 0.0 2.0 0.00 0.00 0.00 85 1017.0
20260508104537 40 214 0.0 3.0 0.00 0.00 0.00 85 1016.8
20260508103036 40 214 1.0 4.0 0.00 0.00 0.00 85 1017.1
20260508101537 40 214 1.0 4.0 0.00 0.00 0.00 84 1017.0
20260508100036 40 214 1.0 2.0 0.00 0.00 0.00 85 1017.0
20260508094535 39 214 1.0 4.0 0.00 0.00 0.00 84 1017.2
20260508093034 39 213 2.0 5.0 0.00 0.00 0.00 83 1017.0
20260508091530 41 212 0.0 1.0 0.00 0.00 0.00 83 1016.8
20260508090033 41 212 1.0 4.0 0.00 0.00 0.00 82 1016.9
20260508084525 42 211 2.0 3.0 0.00 0.00 0.00 81 1016.6
20260508083024 42 211 0.0 3.0 0.00 0.00 0.00 81 1016.6
20260508081526 42 210 2.0 5.0 0.00 0.00 0.00 81 1016.5
20260508080021 43 242 1.0 3.0 0.00 0.00 0.00 80 1016.5
20260508074519 43 242 0.0 4.0 0.00 0.00 0.00 81 1016.1
20260508073018 43 242 2.0 5.0 0.00 0.00 0.00 81 1016.3
20260508071526 44 238 3.0 8.0 0.00 0.00 0.00 80 1016.2
20260508070016 44 254 4.0 8.0 0.00 0.00 0.00 80 1016.4
20260508064513 44 211 3.0 5.0 0.00 0.00 0.00 79 1016.2
20260508063012 44 207 2.0 5.0 0.00 0.00 0.00 77 1016.3
20260508061515 44 209 3.0 5.0 0.00 0.00 0.00 75 1016.2
20260508060008 44 226 3.0 5.0 0.00 0.00 0.00 74 1016.0
20260508054506 45 216 3.0 5.0 0.00 0.00 0.00 73 1016.1
20260508053004 45 214 1.0 4.0 0.00 0.00 0.00 71 1016.2
20260508051503 46 214 2.0 6.0 0.00 0.00 0.00 70 1016.3
20260508044607 47 221 2.0 5.0 0.00 0.00 0.00 66 1016.5
20260508043107 47 236 4.0 7.0 0.00 0.00 0.00 62 1016.5
20260508041555 48 224 4.0 7.0 0.00 0.00 0.00 59 1016.7
20260508040056 48 240 4.0 8.0 0.00 0.00 0.00 62 1016.6
20260508034555 48 261 2.0 4.0 0.00 0.00 0.00 61 1016.6
20260508033050 48 261 1.0 4.0 0.00 0.00 0.00 60 1016.3
20260508031550 48 294 1.0 5.0 0.00 0.00 0.00 60 1016.1
20260508030058 48 313 1.0 4.0 0.00 0.00 0.00 59 1015.9
20260508024549 49 71 0.0 2.0 0.00 0.00 0.00 55 1015.7
20260508023048 49 71 1.0 6.0 0.00 0.00 0.00 53 1015.5
20260508021549 49 53 2.0 5.0 0.00 0.00 0.00 54 1015.4
20260508020049 50 52 3.0 5.0 0.00 0.00 0.00 54 1015.4
20260508014548 51 51 2.0 4.0 0.00 0.00 0.00 53 1015.4
20260508013047 52 47 2.0 4.0 0.00 0.00 0.00 52 1015.0
20260508011547 52 47 1.0 3.0 0.00 0.00 0.00 51 1015.0
20260508010047 53 47 1.0 5.0 0.00 0.00 0.00 50 1015.0
20260508004551 53 360 0.0 3.0 0.00 0.00 0.00 48 1015.0
20260508003047 54 360 1.0 4.0 0.00 0.00 0.00 48 1014.8
20260508001544 54 324 0.0 6.0 0.00 0.00 0.00 47 1014.8
20260508000044 54 30 0.0 8.0 0.00 0.00 0.00 46 1014.6
20260507234552 55 346 1.0 6.0 0.00 0.00 0.00 45 1014.5
20260507233044 55 11 4.0 11.0 0.00 0.00 0.00 44 1014.4
20260507231549 55 51 3.0 10.0 0.00 0.00 0.00 45 1014.3
20260507230046 57 55 9.0 14.0 0.00 0.00 0.00 43 1014.3
20260507224544 58 33 5.0 11.0 0.00 0.00 0.00 42 1014.3
20260507223042 58 55 7.0 14.0 0.00 0.00 0.00 42 1014.2
20260507221542 59 67 7.0 15.0 0.00 0.00 0.00 43 1014.3
20260507220040 58 360 5.0 12.0 0.00 0.00 0.00 43 1014.2
20260507214538 58 342 2.0 15.0 0.00 0.00 0.00 42 1014.2
20260507213038 58 341 3.0 14.0 0.00 0.00 0.00 43 1014.3
20260507211537 57 338 4.0 11.0 0.00 0.00 0.00 42 1014.5
20260507210036 58 338 3.0 12.0 0.00 0.00 0.00 42 1014.3
20260507204535 58 318 6.0 11.0 0.00 0.00 0.00 41 1014.4
20260507203041 57 346 7.0 15.0 0.00 0.00 0.00 42 1014.4
20260507201539 57 315 11.0 16.0 0.00 0.00 0.00 39 1014.4
20260507200045 58 308 9.0 17.0 0.00 0.00 0.00 40 1014.5
20260507194532 56 302 7.0 13.0 0.00 0.02 0.00 42 1014.6
20260507193034 56 332 7.0 15.0 0.00 0.02 0.00 41 1014.7
20260507191532 56 5 6.0 12.0 0.00 0.02 0.00 41 1014.7
20260507190130 56 308 9.0 14.0 0.00 0.02 0.00 41 1014.9
20260507184527 57 324 8.0 13.0 0.00 0.02 0.00 39 1015.0
20260507183035 56 349 8.0 15.0 0.00 0.02 0.00 41 1015.2
20260507181524 57 347 10.0 21.0 0.00 0.02 0.00 40 1015.3
20260507180035 57 345 5.0 16.0 0.00 0.02 0.00 41 1015.6
20260507174524 57 331 7.0 13.0 0.00 0.02 0.00 43 1015.7
20260507173019 56 9 0.0 4.0 0.00 0.02 0.00 45 1015.6
20260507171515 55 36 5.0 11.0 0.00 0.02 0.00 47 1016.0
20260507170016 53 321 7.0 12.0 0.00 0.02 0.00 46 1015.9
20260507164513 53 26 3.0 10.0 0.00 0.02 0.00 47 1016.1
20260507163013 54 273 5.0 10.0 0.00 0.02 0.00 47 1016.1
20260507161513 53 279 7.0 12.0 0.00 0.02 0.00 46 1016.5
20260507160009 53 306 3.0 12.0 0.00 0.04 0.00 48 1016.5
20260507154508 52 249 4.0 8.0 0.00 0.04 0.00 46 1016.7
20260507153010 52 324 4.0 13.0 0.00 0.04 0.00 47 1016.9
20260507151507 52 275 4.0 12.0 0.00 0.04 0.00 47 1017.0
20260507150006 52 323 3.0 11.0 0.00 0.07 0.00 49 1017.3
20260507144503 51 331 4.0 13.0 0.00 0.07 0.00 48 1017.3
20260507143002 51 21 4.0 10.0 0.00 0.07 0.00 49 1017.4
20260507141602 50 280 3.0 10.0 0.00 0.07 0.00 51 1017.4
20260507140058 49 11 2.0 12.0 0.00 0.07 0.00 55 1017.5
20260507134557 48 303 5.0 11.0 0.00 0.14 0.00 55 1017.6
20260507133056 48 292 3.0 10.0 0.00 0.14 0.00 63 1017.6
20260507131555 47 335 2.0 5.0 0.00 0.14 0.00 68 1017.6
20260507130047 46 19 1.0 6.0 0.00 0.14 0.00 69 1017.8
20260507124545 45 55 1.0 4.0 0.00 0.25 0.00 75 1017.6
20260507123044 44 355 1.0 4.0 0.00 0.25 0.00 75 1017.9
20260507121543 43 329 2.0 5.0 0.00 0.25 0.00 80 1017.8
20260507120043 42 346 0.0 4.0 0.00 0.25 0.00 83 1017.7
20260507114542 41 236 1.0 4.0 0.00 0.26 0.00 84 1017.7
20260507113041 40 222 2.0 4.0 0.00 0.26 0.00 86 1017.7
20260507111541 40 217 1.0 3.0 0.00 0.26 0.00 87 1017.4